Regional Weather Roundup
Issued by NWS

Home | Current Version | Previous Version | Graphics & Text | Print | Product List | Glossary Off
Versions: 1 2 3 4 5 6 7 8 9 10 11 12 13 14 15 16 17 18 19 20 21 22 23 24 25 26 27 28 29 30 31 32 33 34 35 36 37 38 39 40 41 42 43 44 45 46 47 48 49 50

000
ASUS43 KTOP 231959
RWRKS

WEATHER ROUNDUP FOR KANSAS
NATIONAL WEATHER SERVICE GOODLAND KS
300 PM CDT WED JUL 23 2014

NOTE:  "FAIR" INDICATES FEW OR NO CLOUDS BELOW 12,000 FEET WITH NO
SIGNIFICANT WEATHER AND/OR OBSTRUCTIONS TO VISIBILITY.

KSZ001>006-013>018-027>032-041>047-232100-
NORTHWEST KANSAS

CITY           SKY/WX    TMP DP  RH WIND       PRES   REMARKS
GOODLAND       SUNNY     87  60  40 SE16G22   30.28F
HAYS           CLOUDY    84  63  48 SE6       30.19F
HILL CITY      CLOUDY    82  64  54 SE14      30.16F
RUSSELL        PTSUNNY   85  65  51 E5        30.18F
$$

KSZ061>065-074>080-084>089-232100-
SOUTHWEST KANSAS

CITY           SKY/WX    TMP DP  RH WIND       PRES   REMARKS
DODGE CITY     PTSUNNY   88  69  53 N25G36    30.24F
ELKHART          N/A     93  64  38 SE13        N/A
GARDEN CITY    MOSUNNY   83  70  64 NE23G36   30.26R
GREAT BEND     PTSUNNY   88  66  48 N14       30.19F
LIBERAL        SUNNY     97  57  26 SE5       30.23F HX  95
$$

KSZ066>073-081>083-090>101-232100-
SOUTHEAST KANSAS

CITY           SKY/WX    TMP DP  RH WIND       PRES   REMARKS
CHANUTE        CLOUDY    84  74  71 E7        30.12S
COFFEYVILLE    LGT RAIN  72  70  93 S7        30.10F
HUTCHINSON     MOSUNNY   93  64  38 N14G24    30.18F
MEDICINE LODGE   N/A     92  74  55 NE10      30.16F HX 101
NEWTON         PTSUNNY   90  63  40 N16G24    30.21F
PARSONS        CLOUDY    75  70  84 CALM      30.14R
WICHITA INTL   PTSUNNY   84  67  56 N7        30.17S
WICHITA JABRA  PTSUNNY   87  67  51 N13       30.16F
WINFIELD       CLOUDY    78  70  76 NE9       30.16R
$$

KSZ007>012-019>026-033>040-048>060-102>105-232100-
NORTHEAST KANSAS

CITY           SKY/WX    TMP DP  RH WIND       PRES   REMARKS
EMPORIA        CLOUDY    85  66  53 NE6       30.16R
LAWRENCE       SUNNY     87  66  49 NE8       30.13F
MANHATTAN      PTSUNNY   90  62  39 NE7       30.17S
OLATHE IND     SUNNY     89  60  37 N13G21    30.14F
OLATHE EXE     SUNNY     89  62  40 NE13      30.13F
SALINA         CLOUDY    90  60  36 N15       30.18F
TOPEKA BILLARD SUNNY     91  64  40 NE12G17   30.14S
TOPEKA FORBES  SUNNY     90  63  40 NE13      30.14S
$$


USA.gov is the U.S. government's official web portal to all federal, state and local government web resources and services.